1485522000.58,21526,11.44,73934.5,4.01,-32.79,-33.09,0,*7C
1485522001.86,21527,11.44,73932.3,4.01,-32.79,-32.97,0,*7B
1485522003.11,21528,11.44,73932.8,4.03,-32.85,-33.27,0,*7F
1485522004.37,21529,11.44,73930.8,4.03,-32.85,-33.09,0,*72
1485522005.65,21530,11.44,73932.5,4.01,-32.97,-33.27,0,*77
1485522006.87,21531,11.44,73928.5,4.03,-33.27,-33.55,0,*7B
1485522008.15,21532,11.44,73934.3,4.01,-33.31,-33.49,0,*70
1485522009.37,21533,11.44,73932.8,4.03,-33.55,-33.73,0,*78
1485522010.62,21534,11.44,73930.8,4.03,-33.09,-33.43,0,*75
1485522011.88,21535,11.44,73934.5,4.01,-32.91,-33.09,0,*78
1485522013.08,21536,11.44,73932.3,4.03,-33.03,-33.37,0,*7E
1485522014.33,21537,11.44,73934.0,4.01,-33.43,-33.67,0,*7C
1485522015.58,21538,11.44,73934.5,4.03,-33.61,-33.77,0,*70
1485522016.83,21539,11.44,73932.5,4.03,-33.73,-34.01,0,*74
1485522018.06,21540,11.44,73932.8,4.03,-33.37,-33.61,0,*7B
1485522019.28,21541,11.44,73936.8,4.03,-33.15,-33.49,0,*70
1485522020.56,21542,11.44,73930.8,4.01,-33.09,-33.43,0,*76
1485522021.84,21543,11.44,73934.3,4.01,-33.31,-33.61,0,*7C
1485522023.11,21544,11.44,73936.5,4.01,-33.61,-33.77,0,*79
1485522024.39,21545,11.44,73932.8,4.01,-33.43,-33.77,0,*78
1485522025.61,21546,11.44,73936.3,4.01,-32.91,-33.15,0,*71
1485522026.87,21547,11.44,73934.3,4.03,-32.85,-33.27,0,*76
1485522028.07,21548,11.44,73932.8,4.03,-33.37,-33.55,0,*74
1485522029.35,21549,11.44,73932.3,4.01,-33.77,-33.89,0,*72
1485522030.58,21550,11.44,73934.5,4.01,-33.83,-34.07,0,*70
1485522031.85,21551,11.44,73934.3,4.01,-33.61,-33.77,0,*7D
1485522033.11,21552,11.44,73932.0,4.03,-33.73,-34.01,0,*79
1485522034.38,21553,11.44,73932.8,4.01,-33.61,-33.77,0,*7F
1485522035.65,21554,11.44,73932.5,3.99,-32.79,-33.27,0,*73
1485522036.9,21555,11.44,73932.8,4.01,-33.31,-33.67,0,*7D
1485522038.15,21556,11.44,73934.3,4.01,-33.15,-33.61,0,*7E
1485522039.4,21557,11.44,73932.8,4.01,-32.91,-33.31,0,*77
1485522040.65,21558,11.44,73934.5,4.01,-33.15,-33.49,0,*7A
1485522041.9,21559,11.44,73934.8,4.03,-33.27,-33.73,0,*71
1485522043.11,21560,11.44,73934.0,4.03,-33.61,-33.83,0,*76
1485522044.37,21561,11.44,73934.5,4.01,-33.67,-34.01,0,*7E
1485522045.62,21562,11.44,73930.3,4.01,-33.15,-33.49,0,*73
1485522046.88,21563,11.44,73932.5,4.03,-33.09,-33.43,0,*77
1485522048.13,21564,11.44,73934.0,4.01,-33.15,-33.49,0,*75
1485522049.36,21565,11.44,73932.8,4.03,-33.03,-33.43,0,*7B
1485522050.61,21566,11.44,73934.8,4.01,-33.31,-33.67,0,*7D
1485522051.89,21567,11.44,73934.5,4.01,-33.09,-33.31,0,*74
1485522053.12,21568,11.44,73932.8,4.03,-33.37,-33.61,0,*71
1485522054.34,21569,11.44,73934.5,4.03,-33.09,-33.55,0,*7A
1485522055.62,21570,11.44,73934.5,4.01,-33.09,-33.31,0,*72
1485522056.88,21571,11.44,73932.8,4.01,-32.91,-33.27,0,*74
1485522058.11,21572,11.44,73932.8,4.03,-33.03,-33.43,0,*7D
1485522059.33,21573,11.44,73932.8,4.03,-33.21,-33.43,0,*7C
1485522060.59,21574,11.44,73934.3,4.01,-32.91,-33.31,0,*76
1485522061.81,21575,11.44,73932.5,4.03,-33.55,-33.77,0,*7E
1485522063.05,21576,11.44,73932.5,4.03,-33.43,-33.61,0,*7D
1485522064.28,21577,11.44,73934.0,4.03,-33.67,-33.89,0,*7C
1485522065.52,21578,11.44,73932.3,4.03,-33.61,-33.73,0,*70
1485522066.77,21579,11.44,73932.8,4.03,-33.61,-33.77,0,*75
1485522068.04,21580,11.44,73930.3,4.01,-32.97,-33.31,0,*7B
1485522069.27,21581,11.44,73934.5,4.03,-33.55,-34.01,0,*73
1485522070.51,21582,11.44,73932.5,4.03,-33.77,-34.19,0,*79
1485522071.79,21583,11.44,73932.5,4.01,-33.61,-33.89,0,*73
1485522073.07,21584,11.44,73932.5,4.01,-34.35,-34.53,0,*72
1485522074.3,21585,11.44,73934.3,4.01,-33.67,-34.07,0,*72
1485522075.52,21586,11.44,73934.0,4.03,-33.83,-34.35,0,*78
1485522076.77,21587,11.44,73934.8,4.01,-34.07,-34.35,0,*70
1485522078.02,21588,11.44,73930.3,4.01,-34.01,-34.41,0,*7A
1485522079.25,21589,11.44,73932.5,4.01,-34.41,-34.77,0,*7A
1485522080.48,21590,11.44,73928.3,3.99,-34.07,-34.35,0,*70
1485522081.7,21591,11.44,73930.8,3.97,-34.25,-34.41,0,*7C
1485522082.92,21592,11.44,73930.3,3.99,-34.01,-34.25,0,*75
1485522084.16,21593,11.44,73932.3,3.99,-33.31,-33.67,0,*71
1485522085.38,21594,11.44,73934.0,3.97,-33.67,-33.95,0,*76
1485522086.64,21595,11.44,73936.3,3.97,-34.07,-34.31,0,*7F
1485522087.9,21596,11.44,73934.3,3.97,-33.73,-34.07,0,*7D
1485522089.13,21597,11.44,73932.3,3.99,-33.67,-34.01,0,*71
1485522090.35,21598,11.44,73936.0,3.97,-33.95,-34.25,0,*7B
1485522091.59,21599,11.44,73932.8,3.97,-33.89,-34.25,0,*77
1485522092.83,21600,11.44,73934.3,3.97,-33.37,-33.67,0,*70
1485522094.06,21601,11.44,73934.5,3.97,-33.83,-34.07,0,*7F
1485522095.34,21602,11.44,73936.0,3.97,-33.49,-33.73,0,*7E
1485522096.6,21603,11.44,73930.5,3.99,-33.49,-33.77,0,*75
1485522097.83,21604,11.44,73934.5,3.97,-34.07,-34.59,0,*7A
1485522099.06,21605,11.44,73930.8,3.97,-34.07,-34.41,0,*72
1485522100.32,21606,11.44,73934.0,3.97,-34.41,-34.65,0,*75
1485522101.55,21607,11.44,73932.5,3.95,-34.07,-34.47,0,*74
1485522102.77,21608,11.44,73936.0,3.95,-33.83,-34.07,0,*74
1485522104.0,21609,11.44,73934.0,3.95,-33.89,-34.41,0,*7D
1485522105.24,21610,11.44,73932.5,3.95,-33.89,-34.25,0,*77
1485522106.49,21611,11.44,73932.8,3.93,-34.19,-34.53,0,*7F
1485522107.73,21612,11.44,73934.3,3.93,-34.53,-34.83,0,*7F
1485522108.98,21613,11.44,73930.8,3.93,-34.35,-34.83,0,*7E
1485522110.22,21614,11.44,73932.3,3.93,-34.01,-34.35,0,*73
1485522111.44,21615,11.44,73934.8,3.93,-34.35,-34.71,0,*75
1485522112.69,21616,11.44,73932.8,3.87,-34.35,-34.71,0,*73
1485522113.91,21617,11.44,73934.3,3.89,-34.01,-34.25,0,*7A
1485522115.14,21618,11.44,73934.3,3.87,-34.59,-34.89,0,*70
1485522116.37,21619,11.44,73932.8,3.89,-34.53,-34.77,0,*74
1485522117.62,21620,11.44,73934.5,3.87,-34.95,-35.13,0,*79
1485522118.86,21621,11.44,73930.3,3.87,-33.95,-34.19,0,*74
1485522120.09,21622,11.44,73936.0,3.89,-34.35,-34.71,0,*7A
1485522121.3,21623,11.44,73930.5,3.87,-33.95,-34.25,0,*79
1485522122.54,21624,11.44,73932.0,3.87,-33.83,-34.19,0,*76
1485522123.75,21625,11.44,73928.8,3.89,-33.67,-33.83,0,*77
1485522125.0,21626,11.44,73934.5,3.87,-33.67,-34.01,0,*77
1485522126.24,21627,11.44,73932.0,3.87,-33.61,-33.83,0,*7D
1485522127.48,21628,11.44,73932.0,3.87,-33.61,-33.95,0,*75
1485522128.7,21629,11.44,73930.5,3.89,-33.61,-33.83,0,*7D
1485522129.92,21630,11.44,73932.0,3.87,-33.67,-33.95,0,*7A
1485522131.19,21631,11.44,73936.0,3.87,-33.43,-33.77,0,*71
1485522132.44,21632,11.44,73932.0,3.89,-32.97,-33.31,0,*76
1485522133.69,21633,11.44,73928.5,3.89,-32.97,-33.31,0,*77
1485522134.88,21634,11.44,73934.0,3.89,-32.91,-33.15,0,*70
1485522136.12,21635,11.44,73934.5,3.89,-32.69,-32.75,0,*71
1485522137.34,21636,11.44,73930.5,3.93,-32.51,-32.79,0,*7E
1485522138.59,21637,11.44,73930.8,3.93,-32.63,-32.85,0,*7D
1485522139.82,21638,11.44,73932.5,3.93,-32.85,-33.21,0,*75
1485522141.04,21639,11.44,73932.5,3.93,-32.85,-33.21,0,*74
1485522142.26,21640,11.44,73932.8,3.95,-33.15,-33.21,0,*74
1485522143.52,21641,11.44,73934.8,3.95,-32.97,-33.31,0,*7F
1485522144.77,21642,11.44,73932.0,3.95,-32.75,-33.03,0,*71
1485522146.03,21643,11.44,73930.8,3.97,-33.03,-33.49,0,*7C
1485522147.29,21644,11.44,73932.3,3.97,-33.37,-33.73,0,*75
1485522148.51,21645,11.44,73934.3,3.97,-34.07,-34.41,0,*76
1485522149.8,21646,11.44,73932.8,3.97,-33.73,-33.89,0,*72
1485522151.05,21647,11.44,73932.3,3.95,-33.31,-33.67,0,*77
1485522152.32,21648,11.44,73932.3,3.95,-33.31,-33.49,0,*74
1485522153.57,21649,11.44,73934.5,3.95,-32.97,-33.37,0,*71
1485522154.81,21650,11.44,73934.3,3.95,-33.31,-33.55,0,*70
1485522156.03,21651,11.44,73932.3,3.95,-33.15,-33.37,0,*73
1485522157.27,21652,11.44,73934.8,3.97,-34.07,-34.47,0,*76
1485522158.5,21653,11.44,73934.3,3.97,-33.67,-33.95,0,*7E
1485522159.73,21654,11.44,73934.5,3.97,-33.03,-33.37,0,*73
1485522160.95,21655,11.44,73934.3,3.97,-33.55,-33.83,0,*7E
1485522162.21,21656,11.44,73930.5,3.97,-33.31,-33.67,0,*75
1485522163.46,21657,11.44,73934.5,3.97,-33.15,-33.49,0,*7E
1485522164.72,21658,11.44,73934.5,3.97,-32.79,-33.21,0,*74
1485522165.98,21659,11.44,73934.0,3.97,-32.79,-33.21,0,*75
1485522167.23,21660,11.44,73934.0,3.99,-32.79,-33.09,0,*7B
1485522168.46,21661,11.44,73934.8,3.97,-33.15,-33.55,0,*76
1485522169.72,21662,11.44,73934.3,3.97,-33.37,-33.73,0,*71
1485522170.95,21663,11.44,73932.5,3.97,-33.37,-33.67,0,*75
1485522172.15,21664,11.44,73932.5,3.99,-33.21,-33.55,0,*7A
1485522173.44,21665,11.44,73928.3,3.97,-33.49,-33.73,0,*7F
1485522174.67,21666,11.44,73932.8,3.97,-33.37,-33.67,0,*70
1485522175.9,21667,11.44,73928.3,3.97,-33.83,-33.95,0,*73
1485522177.13,21668,11.44,73930.8,3.97,-33.83,-34.13,0,*75
1485522178.35,21669,11.44,73934.5,3.97,-33.55,-33.83,0,*71
1485522179.61,21670,11.44,73934.0,3.97,-33.03,-33.49,0,*7C
1485522180.83,21671,11.44,73932.0,3.97,-33.55,-33.83,0,*78
1485522182.07,21672,11.44,73932.5,3.97,-33.37,-33.67,0,*75
1485522183.3,21673,11.44,73930.8,3.97,-33.37,-33.55,0,*75
1485522184.56,21674,11.44,73930.8,3.97,-33.31,-33.67,0,*75
1485522185.81,21675,11.44,73934.8,3.97,-33.31,-33.67,0,*74
1485522187.07,21676,11.44,73930.5,3.97,-33.21,-33.49,0,*7A
1485522188.32,21677,11.44,73928.8,3.97,-32.97,-33.37,0,*7E
1485522189.58,21678,11.44,73932.3,3.97,-32.63,-33.03,0,*7D
1485522190.8,21679,11.44,73930.8,3.99,-33.15,-33.31,0,*73
1485522192.03,21680,11.44,73930.0,3.99,-33.15,-33.31,0,*75
1485522193.29,21681,11.44,73934.0,3.97,-32.85,-33.15,0,*74
1485522194.55,21682,11.44,73932.5,3.99,-32.75,-33.09,0,*7B
1485522195.78,21683,11.44,73934.0,3.99,-32.57,-32.75,0,*70
1485522196.99,21684,11.44,73934.5,3.99,-32.35,-32.39,0,*7B
1485522198.25,21685,11.44,73928.8,4.01,-32.69,-33.09,0,*77
1485522199.52,21686,11.44,73930.3,4.01,-32.97,-33.31,0,*7E
1485522200.78,21687,11.44,73930.3,4.01,-33.03,-33.31,0,*73
1485522202.06,21688,11.44,73930.5,4.01,-32.97,-33.43,0,*75
1485522203.29,21689,11.44,73930.3,4.03,-32.85,-33.21,0,*71
1485522204.57,21690,11.44,73930.5,4.01,-32.79,-33.27,0,*7E
1485522205.83,21691,11.44,73932.8,4.03,-32.75,-33.27,0,*71
1485522207.11,21692,11.44,73932.0,4.01,-33.43,-33.77,0,*71
1485522208.39,21693,11.44,73932.3,4.01,-33.49,-33.77,0,*7A
1485522209.67,21694,11.44,73930.0,4.01,-33.49,-33.77,0,*7D
1485522210.95,21695,11.44,73932.0,4.01,-34.19,-34.53,0,*7F
1485522212.19,21696,11.44,73930.8,4.01,-33.89,-34.25,0,*73
1485522213.47,21697,11.44,73930.3,4.01,-33.27,-33.61,0,*71
1485522214.69,21698,11.44,73930.3,4.03,-32.91,-33.31,0,*75
1485522215.94,21699,11.44,73934.0,4.01,-33.31,-33.67,0,*7E
1485522217.22,21700,11.44,73932.0,4.01,-33.27,-33.49,0,*74
1485522218.45,21701,11.44,73934.5,4.03,-32.75,-33.21,0,*7F
1485522219.73,21702,11.44,73930.3,4.01,-33.09,-33.31,0,*75
1485522220.99,21703,11.44,73932.8,4.01,-32.91,-33.27,0,*73
1485522222.22,21704,11.44,73934.0,4.01,-32.23,-32.51,0,*7D
1485522223.5,21705,11.44,73932.8,4.01,-32.75,-33.09,0,*73
1485522224.78,21706,11.44,73934.0,4.01,-33.09,-33.31,0,*71
1485522226.03,21707,11.5,73936.5,4.03,-32.75,-33.09,0,*73
1485522227.26,21708,11.44,73934.5,4.03,-33.27,-33.37,0,*77
1485522228.48,21709,11.44,73934.8,4.03,-33.55,-33.73,0,*73
1485522229.73,21710,11.5,73932.5,4.03,-33.27,-33.61,0,*7D
1485522230.95,21711,11.44,73934.3,4.03,-33.55,-33.73,0,*7A
1485522232.18,21712,11.44,73932.3,4.03,-33.03,-33.43,0,*79
1485522233.38,21713,11.5,73934.8,4.03,-33.03,-33.37,0,*7B
1485522234.6,21714,11.44,73932.3,4.03,-33.55,-33.73,0,*7F
1485522235.82,21715,11.5,73934.3,4.03,-33.61,-33.95,0,*71
1485522237.01,21716,11.44,73930.5,4.03,-33.55,-33.83,0,*72
1485522238.24,21717,11.44,73928.5,4.03,-33.73,-33.95,0,*70
1485522239.44,21718,11.44,73932.8,4.03,-33.21,-33.55,0,*74
1485522240.72,21719,11.44,73928.0,4.01,-33.77,-34.01,0,*72
1485522241.97,21720,11.44,73932.3,4.01,-33.31,-33.67,0,*7D
1485522243.17,21721,11.44,73930.5,4.03,-33.03,-33.21,0,*7D
1485522244.4,21722,11.5,73936.0,4.03,-32.91,-33.27,0,*72
1485522245.66,21723,11.44,73932.5,4.01,-33.67,-34.01,0,*7A
1485522246.93,21724,11.44,73928.8,4.01,-34.01,-34.35,0,*7D
1485522248.22,21725,11.44,73930.8,4.01,-34.19,-34.53,0,*75
1485522249.44,21726,11.44,73928.0,4.01,-33.67,-33.83,0,*72
1485522250.72,21727,11.44,73930.0,4.01,-32.97,-33.43,0,*71
1485522252.0,21728,11.44,73928.8,4.01,-32.75,-32.97,0,*7A
1485522253.25,21729,11.44,73930.5,4.03,-32.97,-33.31,0,*78
1485522254.48,21730,11.44,73930.3,4.03,-33.09,-33.37,0,*70
1485522255.71,21731,11.44,73928.8,4.03,-33.21,-33.43,0,*78
1485522256.99,21732,11.44,73926.3,4.01,-33.27,-33.49,0,*75
1485522258.22,21733,11.44,73930.0,4.03,-32.69,-32.85,0,*7C
1485522259.44,21734,11.44,73930.3,4.03,-32.51,-32.63,0,*78
1485522260.69,21735,11.44,73928.8,4.03,-32.29,-32.45,0,*72
1485522261.91,21736,11.44,73930.8,4.03,-32.19,-32.35,0,*75
1485522263.17,21737,11.44,73928.3,4.07,-32.07,-32.29,0,*72
1485522264.39,21738,11.44,73930.3,4.05,-32.39,-32.57,0,*7B
1485522265.62,21739,11.44,73928.5,4.07,-32.79,-33.03,0,*7C
1485522266.88,21740,11.44,73928.3,4.05,-32.97,-33.37,0,*77
1485522268.1,21741,11.44,73932.5,4.07,-32.45,-32.57,0,*7C
1485522269.32,21742,11.5,73932.3,4.07,-32.39,-32.45,0,*77
1485522270.56,21743,11.44,73928.3,4.07,-32.57,-32.79,0,*71
1485522271.78,21744,11.44,73930.5,4.09,-32.57,-32.57,0,*74
1485522272.99,21745,11.44,73926.5,4.11,-32.39,-32.51,0,*72
1485522274.24,21746,11.44,73926.8,4.11,-32.97,-33.31,0,*72
1485522275.52,21747,11.44,73930.8,4.09,-33.09,-33.31,0,*7C
1485522276.78,21748,11.44,73928.3,4.09,-32.57,-32.79,0,*74
1485522278.01,21749,11.44,73930.5,4.11,-32.07,-32.35,0,*71
1485522279.24,21750,11.44,73928.0,4.11,-32.51,-32.79,0,*72
1485522280.47,21751,11.44,73930.3,4.11,-32.51,-32.79,0,*73
1485522281.69,21752,11.44,73930.8,4.17,-33.03,-33.21,0,*7C
1485522282.95,21753,11.44,73926.8,4.13,-32.51,-32.75,0,*7F
1485522284.18,21754,11.44,73924.8,4.13,-32.51,-32.69,0,*75
1485522285.43,21755,11.44,73930.0,4.13,-32.29,-32.35,0,*72
1485522286.71,21756,11.44,73930.8,4.13,-31.95,-32.19,0,*7B
1485522287.99,21757,11.44,73928.0,4.13,-31.85,-32.07,0,*74
1485522289.22,21758,11.44,73930.5,4.17,-32.13,-32.39,0,*7E
1485522290.49,21759,11.44,73928.8,4.17,-32.29,-32.45,0,*7D
1485522291.72,21760,11.44,73930.0,4.19,-32.07,-32.23,0,*75
1485522292.98,21761,11.44,73924.8,4.19,-31.73,-32.07,0,*72
1485522294.2,21762,11.44,73926.5,4.19,-32.13,-32.29,0,*78
1485522295.45,21763,11.44,73926.5,4.21,-32.19,-32.35,0,*75
1485522296.73,21764,11.44,73926.8,4.21,-31.85,-32.07,0,*75
1485522297.98,21765,11.44,73928.5,4.25,-32.01,-32.19,0,*70
1485522299.23,21766,11.44,73930.3,4.25,-32.91,-33.09,0,*7A
1485522300.48,21767,11.44,73924.8,4.23,-33.09,-33.27,0,*71
1485522301.68,21768,11.44,73930.8,4.23,-32.91,-33.15,0,*7F
1485522302.93,21769,11.44,73924.8,4.23,-32.75,-33.09,0,*79
1485522304.18,21770,11.44,73930.5,4.25,-32.01,-32.29,0,*77
1485522305.4,21771,11.44,73926.5,4.23,-32.19,-32.57,0,*70
1485522306.62,21772,11.44,73930.0,4.25,-32.01,-32.13,0,*7C
1485522307.84,21773,11.44,73928.3,4.27,-31.95,-32.13,0,*71
1485522309.05,21774,11.44,73924.8,4.27,-32.29,-32.57,0,*72
1485522310.28,21775,11.5,73930.3,4.27,-32.39,-32.75,0,*72
1485522311.51,21776,11.44,73926.5,4.27,-32.51,-32.75,0,*7F
1485522312.72,21777,11.44,73924.3,4.27,-33.21,-33.61,0,*7C
1485522313.95,21778,11.44,73928.5,4.27,-32.69,-33.09,0,*70
1485522315.2,21779,11.5,73930.0,4.27,-32.85,-33.09,0,*73
1485522316.39,21780,11.44,73926.0,4.27,-33.03,-33.21,0,*70
1485522317.59,21781,11.44,73930.3,4.27,-32.69,-33.03,0,*7C
1485522318.78,21782,11.44,73926.8,4.27,-32.35,-32.69,0,*7B
1485522320.04,21783,11.44,73928.5,4.29,-31.95,-32.07,0,*75
1485522321.27,21784,11.5,73930.3,4.29,-32.13,-32.29,0,*73
1485522322.53,21785,11.44,73928.0,4.29,-31.91,-32.07,0,*77
1485522323.76,21786,11.44,73928.0,4.29,-31.79,-31.95,0,*7A
1485522325.02,21787,11.5,73928.5,4.29,-31.91,-31.95,0,*7D
1485522326.25,21788,11.44,73926.5,4.31,-32.01,-32.23,0,*7F
1485522327.53,21789,11.5,73928.5,4.31,-32.45,-32.79,0,*71
1485522328.79,21790,11.44,73928.8,4.33,-32.63,-32.79,0,*7F
1485522330.07,21791,11.44,73928.5,4.31,-32.45,-32.79,0,*78
1485522331.36,21792,11.44,73928.3,4.31,-32.07,-32.19,0,*7B
1485522332.61,21793,11.44,73928.0,4.31,-32.23,-32.45,0,*75
1485522333.85,21794,11.44,73924.3,4.33,-32.01,-32.07,0,*76
1485522335.07,21795,11.44,73928.5,4.33,-31.91,-32.23,0,*7B
1485522336.3,21796,11.5,73932.3,4.33,-32.19,-32.23,0,*7B
1485522337.53,21797,11.44,73930.3,4.33,-31.85,-32.01,0,*7C
1485522338.78,21798,11.44,73926.8,4.35,-31.67,-31.95,0,*77
1485522340.03,21799,11.44,73928.5,4.39,-31.79,-31.85,0,*74
1485522341.28,21800,11.44,73926.3,4.35,-31.85,-32.01,0,*7B
1485522342.5,21801,11.44,73928.0,4.39,-31.67,-31.79,0,*76
1485522343.74,21802,11.5,73932.3,4.41,-31.39,-31.57,0,*7D
1485522345.02,21803,11.44,73930.0,4.43,-31.73,-31.73,0,*76
1485522346.29,21804,11.44,73928.5,4.43,-31.85,-31.85,0,*71
1485522347.51,21805,11.44,73928.0,4.45,-31.39,-31.67,0,*7D
1485522348.74,21806,11.44,73926.8,4.45,-32.07,-32.23,0,*73
1485522349.99,21807,11.5,73934.0,4.47,-31.85,-32.01,0,*79
1485522351.25,21808,11.44,73928.0,4.45,-31.73,-31.91,0,*77
1485522352.53,21809,11.44,73930.0,4.47,-32.85,-33.27,0,*71
1485522353.77,21810,11.44,73928.3,4.45,-32.29,-32.63,0,*7C
1485522355.0,21811,11.5,73930.0,4.45,-31.85,-32.23,0,*7C
1485522356.29,21812,11.44,73928.8,4.47,-31.85,-31.95,0,*73
1485522357.54,21813,11.5,73930.5,4.47,-31.61,-31.79,0,*7A
1485522358.79,21814,11.5,73930.3,4.47,-31.61,-31.67,0,*72
1485522360.02,21815,11.44,73928.8,4.49,-31.61,-31.67,0,*7D
1485522361.27,21816,11.44,73926.5,4.51,-31.73,-31.79,0,*7B
1485522362.54,21817,11.44,73928.3,4.51,-31.91,-31.95,0,*74
1485522363.82,21818,11.44,73926.3,4.51,-31.91,-31.95,0,*7B
1485522365.07,21819,11.5,73930.5,4.51,-31.91,-32.13,0,*77
1485522366.34,21820,11.5,73928.3,4.51,-31.91,-32.29,0,*74
1485522367.59,21821,11.44,73924.8,4.53,-32.85,-33.09,0,*72
1485522368.85,21822,11.44,73928.5,4.55,-32.39,-32.79,0,*76
1485522370.09,21823,11.44,73930.3,4.51,-32.13,-32.29,0,*7E
1485522371.33,21824,11.5,73928.0,4.53,-32.19,-32.51,0,*7E
1485522372.53,21825,11.44,73926.5,4.53,-32.13,-32.51,0,*75
1485522373.76,21826,11.5,73930.0,4.53,-33.03,-33.27,0,*76
1485522374.97,21827,11.5,73932.3,4.53,-33.21,-33.37,0,*76
1485522376.17,21828,11.44,73928.5,4.53,-32.35,-32.69,0,*77
1485522377.37,21829,11.44,73928.3,4.53,-32.13,-32.35,0,*7B
1485522378.65,21830,11.5,73928.0,4.55,-31.85,-31.91,0,*74
1485522379.89,21831,11.5,73928.5,4.55,-32.29,-32.57,0,*79
1485522381.17,21832,11.5,73930.0,4.55,-32.07,-32.45,0,*75
1485522382.45,21833,11.5,73930.8,4.55,-32.07,-32.29,0,*7E
1485522383.7,21834,11.5,73930.0,4.55,-32.07,-32.23,0,*73
1485522384.93,21835,11.5,73930.3,4.57,-31.85,-32.01,0,*79
1485522386.18,21836,11.44,73924.8,4.57,-31.91,-32.19,0,*76
1485522387.38,21837,11.44,73928.3,4.57,-31.67,-31.79,0,*7B
1485522388.6,21838,11.44,73926.0,4.61,-31.51,-31.67,0,*7B
1485522389.83,21839,11.44,73930.8,4.61,-31.51,-31.79,0,*75
1485522391.06,21840,11.5,73930.3,4.61,-32.07,-32.39,0,*7C
1485522392.29,21841,11.5,73930.0,4.63,-31.79,-31.79,0,*72
1485522393.57,21842,11.44,73926.8,4.63,-31.61,-31.57,0,*74
1485522394.81,21843,11.5,73930.5,4.63,-31.45,-31.45,0,*70
1485522396.06,21844,11.44,73928.5,4.65,-31.73,-31.95,0,*79
1485522397.31,21845,11.5,73932.3,4.65,-31.85,-32.19,0,*76
1485522398.59,21846,11.44,73926.3,4.67,-31.95,-32.29,0,*75
1485522399.87,21847,11.5,73930.8,4.67,-31.95,-32.07,0,*78
1485522401.1,21848,11.5,73930.3,4.67,-32.13,-32.39,0,*77
1485522402.36,21849,11.44,73926.0,4.67,-32.07,-32.23,0,*78
1485522403.64,21850,11.44,73928.0,4.67,-31.73,-31.95,0,*7E
1485522404.92,21851,11.5,73930.3,4.67,-31.73,-31.95,0,*7F
1485522406.18,21852,11.5,73928.5,4.69,-31.61,-31.85,0,*70
1485522407.43,21853,11.5,73928.8,4.69,-31.85,-32.07,0,*72
1485522408.67,21854,11.5,73928.0,4.69,-32.01,-32.19,0,*75
1485522409.89,21855,11.5,73930.5,4.69,-31.61,-31.67,0,*7B
1485522411.15,21856,11.5,73930.0,4.73,-31.57,-31.61,0,*70
1485522412.4,21857,11.5,73930.5,4.73,-31.61,-31.61,0,*74
1485522413.63,21858,11.44,73924.5,4.73,-31.61,-31.79,0,*72
1485522414.85,21859,11.5,73930.0,4.73,-31.67,-31.95,0,*77
1485522416.11,21860,11.44,73926.3,4.73,-31.61,-31.85,0,*7A
1485522417.33,21861,11.5,73926.8,4.73,-31.85,-32.01,0,*7E
1485522418.53,21862,11.5,73930.3,4.73,-31.79,-32.01,0,*7E
1485522419.76,21863,11.5,73928.5,4.73,-32.01,-32.29,0,*79
1485522420.98,21864,11.5,73930.0,4.73,-31.67,-31.95,0,*79
1485522422.21,21865,11.5,73928.8,4.73,-31.95,-32.13,0,*78
1485522423.47,21866,11.5,73926.3,4.77,-31.73,-31.95,0,*7A
1485522424.7,21867,11.44,73926.5,4.77,-32.13,-32.29,0,*7A
1485522425.95,21868,11.5,73928.0,4.77,-32.07,-32.29,0,*70
1485522427.18,21869,11.44,73926.3,4.77,-31.95,-32.13,0,*70
1485522428.43,21870,11.5,73926.3,4.77,-31.57,-31.73,0,*73
1485522429.69,21871,11.5,73930.0,4.77,-31.73,-31.95,0,*7C
1485522430.94,21872,11.5,73926.3,4.77,-31.57,-31.91,0,*7D
1485522432.2,21873,11.44,73926.0,4.79,-31.73,-32.01,0,*7E
1485522433.43,21874,11.5,73924.8,4.81,-32.07,-32.23,0,*7E
1485522434.68,21875,11.5,73928.3,4.79,-31.85,-32.01,0,*71
1485522435.93,21876,11.5,73928.0,4.81,-31.57,-31.85,0,*75
1485522437.14,21877,11.5,73930.5,4.81,-32.01,-32.23,0,*7B
1485522438.36,21878,11.5,73930.8,4.81,-32.19,-32.35,0,*7A
1485522439.59,21879,11.5,73926.8,4.81,-32.07,-32.35,0,*74
1485522440.82,21880,11.5,73928.5,4.81,-32.57,-32.75,0,*73
1485522442.08,21881,11.5,73926.0,4.81,-31.85,-32.19,0,*74
1485522443.3,21882,11.5,73928.5,4.81,-31.67,-31.73,0,*74
1485522444.55,21883,11.5,73928.8,4.81,-31.57,-31.85,0,*7F
1485522445.77,21884,11.5,73930.3,4.85,-31.51,-31.79,0,*79
1485522446.97,21885,11.5,73928.5,4.85,-31.79,-32.13,0,*7D
1485522448.22,21886,11.5,73926.8,4.87,-31.67,-31.95,0,*7E
1485522449.47,21887,11.5,73930.0,4.87,-31.85,-32.13,0,*7E
1485522450.73,21888,11.5,73930.0,4.87,-31.95,-32.13,0,*70
1485522451.99,21889,11.5,73932.5,4.87,-32.01,-32.19,0,*75
1485522453.24,21890,11.5,73928.5,4.87,-31.95,-32.13,0,*79
1485522454.49,21891,11.5,73928.3,4.87,-31.85,-32.13,0,*79
1485522455.75,21892,11.5,73928.0,4.87,-31.95,-32.13,0,*7B
1485522456.97,21893,11.5,73928.5,4.89,-32.39,-32.63,0,*76
1485522458.19,21894,11.5,73930.0,4.89,-32.45,-32.69,0,*70
1485522459.39,21895,11.5,73924.8,4.89,-32.13,-32.39,0,*77
1485522460.61,21896,11.5,73928.8,4.89,-31.95,-32.13,0,*71
1485522461.84,21897,11.5,73924.8,4.89,-31.95,-32.13,0,*70
1485522463.09,21898,11.5,73926.0,4.91,-31.85,-32.01,0,*74
1485522464.34,21899,11.5,73928.8,4.91,-32.19,-32.39,0,*78
1485522465.59,21900,11.5,73928.8,4.91,-32.19,-32.35,0,*75
1485522466.81,21901,11.5,73930.5,4.89,-32.07,-32.23,0,*75
1485522468.03,21902,11.5,73930.3,4.89,-32.13,-32.29,0,*79
1485522469.26,21903,11.5,73928.3,4.89,-32.01,-32.19,0,*78
1485522470.54,21904,11.5,73928.8,4.91,-31.91,-32.07,0,*73
1485522471.79,21905,11.5,73928.3,4.91,-32.01,-32.19,0,*77
1485522473.07,21906,11.5,73928.0,4.91,-31.85,-31.91,0,*78
1485522474.32,21907,11.5,73928.8,4.93,-32.19,-32.23,0,*77
1485522475.56,21908,11.5,73928.5,4.95,-32.39,-32.75,0,*7F
1485522476.82,21909,11.5,73926.0,4.93,-32.07,-32.35,0,*71
1485522478.08,21910,11.5,73924.0,4.93,-32.19,-32.35,0,*76
1485522479.37,21911,11.5,73926.3,4.93,-32.07,-32.19,0,*76
1485522480.59,21912,11.5,73930.8,4.93,-32.23,-32.35,0,*7D
1485522481.84,21913,11.5,73924.5,4.93,-31.67,-31.85,0,*77
1485522483.13,21914,11.5,73928.5,4.93,-31.73,-32.19,0,*73
1485522484.34,21915,11.5,73928.3,4.95,-31.45,-31.79,0,*74
1485522485.57,21916,11.5,73928.0,4.95,-31.51,-31.79,0,*72
1485522486.79,21917,11.5,73928.0,4.97,-31.79,-32.01,0,*77
1485522488.04,21918,11.5,73928.0,4.97,-31.85,-32.01,0,*7B
1485522489.3,21919,11.5,73930.3,4.99,-31.73,-31.95,0,*73
1485522490.53,21920,11.5,73924.5,4.99,-31.91,-32.23,0,*7B
1485522491.77,21921,11.5,73930.3,4.99,-31.79,-31.95,0,*72
1485522493.03,21922,11.5,73930.3,4.99,-31.61,-31.95,0,*78
1485522494.29,21923,11.5,73930.5,4.99,-31.73,-31.91,0,*7E
1485522495.56,21924,11.5,73926.3,5.01,-31.73,-31.91,0,*79
1485522496.82,21925,11.5,73926.3,5.03,-31.91,-32.07,0,*7A
1485522498.1,21926,11.5,73930.8,5.01,-31.73,-31.85,0,*7E
1485522499.34,21927,11.5,73926.0,5.03,-31.39,-31.73,0,*7A
1485522500.56,21928,11.5,73926.5,5.01,-31.67,-32.01,0,*7A
1485522501.82,21929,11.5,73930.0,5.03,-31.85,-32.07,0,*73
1485522503.02,21930,11.5,73930.3,5.03,-31.67,-32.01,0,*71
1485522504.28,21931,11.5,73928.0,5.03,-32.07,-32.19,0,*7C
1485522505.5,21932,11.5,73928.5,5.03,-32.01,-32.29,0,*7A
1485522506.74,21933,11.5,73930.5,5.03,-32.07,-32.23,0,*77
1485522507.99,21934,11.5,73926.8,5.07,-31.95,-32.19,0,*75